TimeEDT,TemperatureF,Dew PointF,Humidity,Sea Level PressureIn,VisibilityMPH,Wind Direction,Wind SpeedMPH,Gust SpeedMPH,PrecipitationIn,Events,Conditions,WindDirDegrees,DateUTC
12:54 AM,39.0,32.0,76,29.94,10.0,ESE,6.9,-,N/A,,Overcast,120,2013-03-10 05:54:00
1:54 AM,41.0,32.0,70,29.93,10.0,SE,8.1,-,N/A,,Overcast,140,2013-03-10 06:54:00
3:54 AM,43.0,32.0,65,29.91,10.0,SSE,8.1,-,N/A,,Overcast,150,2013-03-10 07:54:00
4:54 AM,44.1,32.0,63,29.90,10.0,SSE,3.5,-,N/A,,Overcast,160,2013-03-10 08:54:00
5:54 AM,43.0,35.1,74,29.92,7.0,Calm,Calm,-,0.03,Rain,Light Rain,0,2013-03-10 09:54:00
6:54 AM,41.0,37.0,86,29.92,10.0,SSE,5.8,-,0.00,,Overcast,150,2013-03-10 10:54:00
7:54 AM,41.0,35.6,81,29.89,10.0,SE,6.9,-,N/A,,Mostly Cloudy,130,2013-03-10 11:54:00
8:29 AM,42.8,35.6,76,29.89,10.0,SE,9.2,-,N/A,,Mostly Cloudy,140,2013-03-10 12:29:00
8:52 AM,44.6,35.6,71,29.88,10.0,SSE,8.1,-,N/A,,Overcast,150,2013-03-10 12:52:00
8:54 AM,44.1,36.0,73,29.90,10.0,SSE,8.1,-,N/A,,Overcast,150,2013-03-10 12:54:00
9:54 AM,46.0,36.0,68,29.89,10.0,SSE,9.2,-,N/A,,Scattered Clouds,160,2013-03-10 13:54:00
10:54 AM,48.0,36.0,63,29.87,10.0,South,10.4,-,0.00,,Mostly Cloudy,180,2013-03-10 14:54:00
11:44 AM,50.0,37.4,62,29.87,10.0,South,10.4,-,N/A,,Overcast,190,2013-03-10 15:44:00
11:54 AM,50.0,37.0,61,29.88,10.0,South,10.4,-,N/A,,Overcast,190,2013-03-10 15:54:00
12:54 PM,52.0,39.0,61,29.87,10.0,South,10.4,-,N/A,,Mostly Cloudy,190,2013-03-10 16:54:00
1:54 PM,55.0,41.0,59,29.86,10.0,South,10.4,-,N/A,,Mostly Cloudy,190,2013-03-10 17:54:00
2:54 PM,57.9,42.1,56,29.82,10.0,South,11.5,-,N/A,,Scattered Clouds,170,2013-03-10 18:54:00
3:54 PM,57.9,43.0,58,29.79,10.0,South,12.7,20.7,N/A,,Clear,170,2013-03-10 19:54:00
4:54 PM,57.0,42.1,57,29.79,10.0,SE,13.8,-,N/A,,Mostly Cloudy,140,2013-03-10 20:54:00
5:54 PM,55.9,42.1,60,29.75,10.0,SE,15.0,-,N/A,,Partly Cloudy,140,2013-03-10 21:54:00
6:54 PM,55.9,39.9,55,29.75,10.0,SE,15.0,-,N/A,,Overcast,130,2013-03-10 22:54:00
7:54 PM,54.0,42.1,64,29.76,9.0,SSE,9.2,-,0.00,Rain,Light Rain,150,2013-03-10 23:54:00
8:54 PM,50.0,43.0,77,29.75,10.0,SE,9.2,-,0.03,Rain,Light Rain,130,2013-03-11 00:54:00
10:54 PM,54.0,39.9,59,29.72,10.0,South,12.7,-,N/A,,Overcast,170,2013-03-11 02:54:00
11:54 PM,53.1,41.0,64,29.72,10.0,South,11.5,-,0.00,Rain,Light Rain,170,2013-03-11 03:54:00
12:54 AM,50.0,42.8,76,29.71,9.0,South,8.1,-,N/A,Rain,Light Rain,180,2013-03-11 04:54:00